[[{"header":{"parameterUnit":"m.s-1","parameterCategory":2,"la1":30.2992,"la2":30.254,"lo1":-89.0895,"lo2":-89.0443,"dy":0.0025,"dx":0.0025,"nx":19,"ny":19,"refTime":"2026-03-10T09:00:00:Z","depth":"0","parameterNumber":2,"parameterNumberName":"U-component_of_CURRENTS"},"data":[0,0,0,-0.2253,-0.2253,-0.2191,-0.219,-0.2024,-0.2022,0,0,0,0,0,0,0,0,0,0,0,-0.2267,-0.2267,-0.2253,-0.2253,-0.2191,-0.219,-0.2024,-0.2022,0,0,0,0,0,0,0,0,0,0,0,-0.2267,-0.2267,-0.2267,-0.2253,-0.2191,-0.219,-0.2024,-0.2087,0,0,0,0,0,0,0,0,0,0,-0.2156,-0.2169,-0.2267,-0.2267,-0.2252,-0.2191,-0.219,-0.2091,-0.2083,-0.2033,0,-0.2034,0,-0.2034,-0.2011,-0.201,0,0,0,-0.2231,-0.2175,-0.2184,-0.2267,-0.2252,-0.2191,-0.2213,-0.2087,-0.2079,-0.2023,-0.2032,-0.2026,-0.2032,-0.201,-0.2009,-0.1853,-0.1853,0,0,-0.2235,-0.2224,-0.2191,-0.2179,-0.2247,-0.2215,-0.2211,-0.2083,-0.206,-0.2031,-0.2023,-0.2029,-0.2009,-0.2007,-0.1854,-0.1853,0,0,0,-0.2259,-0.2226,-0.2239,-0.2185,-0.2187,-0.2214,-0.2209,-0.2066,-0.2078,-0.2021,-0.2027,-0.2008,-0.2006,-0.1854,-0.1854,-0.188,0,0,0,-0.226,-0.2243,-0.2241,-0.2229,-0.2191,-0.2133,-0.2194,-0.2086,-0.2073,-0.2028,-0.2008,-0.2004,-0.1855,-0.1854,-0.188,-0.1887,0,0,0,-0.2268,-0.2243,-0.2246,-0.223,-0.2217,-0.2136,-0.2139,-0.2084,-0.2076,-0.201,-0.2004,-0.1855,-0.1854,-0.188,-0.1888,-0.1876,0,0,0,-0.2245,-0.2173,-0.2245,-0.2159,-0.2218,-0.2139,-0.214,-0.2056,-0.1994,-0.2007,-0.1855,-0.1854,-0.188,-0.1888,-0.1876,-0.1698,-0.1682,0,0,-0.2128,-0.2158,-0.2106,-0.2169,-0.2102,-0.2146,-0.2063,-0.1992,-0.1965,-0.1888,-0.1885,-0.188,-0.1888,-0.1876,-0.1636,-0.1622,0,0,0,-0.2051,-0.2036,-0.2017,-0.2009,-0.1993,-0.2015,-0.1972,-0.1968,-0.1916,-0.1931,-0.185,-0.1854,-0.1846,-0.1738,-0.1727,-0.1624,-0.1849,-0.1849,-0.1849,-0.189,-0.1919,-0.1865,-0.1911,-0.1889,-0.1906,-0.1903,-0.1896,-0.1868,-0.1862,-0.1854,-0.1832,-0.1715,-0.1705,-0.1602,-0.183,-0.1831,-0.1831,-0.1831,-0.1773,-0.1759,-0.1824,-0.1791,-0.1854,-0.1823,-0.1852,-0.1864,-0.1852,-0.185,-0.1841,-0.1743,-0.1694,-0.1588,-0.1832,-0.1832,-0.1831,-0.1831,-0.1831,-0.1711,-0.171,-0.1725,-0.174,-0.1766,-0.1805,-0.1824,-0.1852,-0.1856,-0.1858,-0.1717,-0.1714,-0.1639,-0.1848,-0.1848,-0.1848,-0.1848,-0.1848,-0.1848,-0.1639,-0.1659,-0.166,-0.169,-0.1713,-0.1757,-0.181,-0.1807,-0.1749,-0.1715,-0.1713,-0.1589,-0.1837,-0.1857,-0.1847,-0.1847,-0.1847,-0.1847,-0.1847,-0.1532,-0.1568,-0.1577,-0.1599,-0.1662,-0.1637,-0.1722,-0.1623,-0.1623,-0.1539,-0.1397,-0.1627,-0.1598,-0.1604,-0.1616,-0.1545,-0.1545,-0.1545,-0.1545,-0.1458,-0.1478,-0.1514,-0.1556,-0.1601,-0.1591,-0.1432,-0.1354,-0.1249,-0.1159,-0.1219,-0.1162,-0.1178,-0.1125,-0.1141,-0.1144,-0.0955,-0.0955,-0.0954,-0.138,-0.143,-0.1438,-0.152,-0.1576,-0.1495,-0.1228,-0.0988,-0.0882,-0.0929,-0.1116,-0.1141,-0.1063,-0.1098,-0.1019,-0.1051,-0.106,0,0]},{"header":{"parameterUnit":"m.s-1","parameterCategory":2,"la1":30.2992,"la2":30.254,"lo1":-89.0895,"lo2":-89.0443,"dy":0.0025,"dx":0.0025,"nx":19,"ny":19,"refTime":"2026-03-10T09:00:00:Z","depth":"0","parameterNumber":3,"parameterNumberName":"V-component_of_CURRENTS"},"data":[0,0,0,-0.0215,-0.0214,-0.0162,-0.0162,-0.0091,-0.0091,0,0,0,0,0,0,0,0,0,0,0,-0.0233,-0.0233,-0.0215,-0.0214,-0.0162,-0.0162,-0.0091,-0.0091,0,0,0,0,0,0,0,0,0,0,0,-0.0233,-0.0233,-0.0233,-0.0214,-0.0162,-0.0162,-0.0091,-0.0129,0,0,0,0,0,0,0,0,0,0,-0.0179,-0.0213,-0.0233,-0.0233,-0.0213,-0.0162,-0.0161,-0.0131,-0.0127,-0.0116,0,-0.0115,0,-0.0105,-0.0087,-0.0087,0,0,0,-0.0204,-0.0217,-0.0192,-0.0233,-0.0213,-0.0162,-0.0183,-0.0129,-0.0124,-0.0111,-0.0114,-0.0111,-0.0104,-0.0086,-0.0086,-0.0053,-0.0053,0,0,-0.0207,-0.0232,-0.0195,-0.0189,-0.0208,-0.0184,-0.0181,-0.0126,-0.0131,-0.0114,-0.0109,-0.0102,-0.0086,-0.0086,-0.0053,-0.0053,0,0,0,-0.0222,-0.0234,-0.021,-0.0192,-0.0185,-0.0183,-0.0179,-0.0133,-0.0123,-0.0109,-0.0102,-0.0086,-0.0085,-0.0052,-0.0053,-0.0109,0,0,0,-0.0223,-0.0242,-0.0212,-0.0227,-0.0186,-0.0163,-0.0189,-0.0126,-0.012,-0.0102,-0.0086,-0.0084,-0.0052,-0.0053,-0.0107,-0.0119,0,0,0,-0.0234,-0.0244,-0.0238,-0.0228,-0.0208,-0.0163,-0.0149,-0.0125,-0.0116,-0.0086,-0.0084,-0.0052,-0.0053,-0.0106,-0.0117,-0.0052,0,0,0,-0.026,-0.0278,-0.0239,-0.0261,-0.0209,-0.0198,-0.0149,-0.0139,-0.012,-0.0085,-0.0052,-0.0053,-0.0105,-0.0115,-0.0052,0.0046,0.0053,0,0,-0.0299,-0.0283,-0.0296,-0.026,-0.0269,-0.0203,-0.0204,-0.0156,-0.0115,-0.0068,-0.0067,-0.0108,-0.0117,-0.0052,0.0035,0.0043,0,0,0,-0.032,-0.0327,-0.0325,-0.0319,-0.0291,-0.0256,-0.0206,-0.017,-0.0124,-0.0105,-0.0095,-0.0099,-0.0056,0.0003,0.0009,0.0095,-0.0053,-0.0053,-0.0053,-0.0392,-0.0374,-0.0396,-0.0367,-0.0353,-0.0291,-0.0255,-0.0192,-0.0159,-0.0143,-0.0136,-0.0115,-0.0055,-0.0049,0.0036,-0.0132,-0.0133,-0.0133,-0.0133,-0.0454,-0.0465,-0.0439,-0.0452,-0.0402,-0.0386,-0.0297,-0.0256,-0.0169,-0.0164,-0.0119,-0.005,-0.0045,0.0043,-0.0136,-0.0136,-0.0135,-0.0135,-0.0135,-0.0497,-0.05,-0.0502,-0.0511,-0.0493,-0.0438,-0.0365,-0.0307,-0.0212,-0.0182,-0.0042,-0.0039,0.0038,-0.0137,-0.0137,-0.0137,-0.0137,-0.0136,-0.0136,-0.054,-0.054,-0.0568,-0.0569,-0.0569,-0.0526,-0.0402,-0.0306,-0.0149,-0.0073,-0.007,0.0064,-0.0114,-0.0114,-0.0133,-0.0134,-0.0134,-0.0134,-0.0135,-0.0587,-0.0589,-0.0629,-0.0641,-0.0615,-0.0452,-0.0398,-0.0131,-0.0045,0.0067,0.0186,0.0015,0.0064,0.006,0.0066,0.0095,0.0095,0.0095,0.0095,-0.0618,-0.0624,-0.0648,-0.065,-0.0592,-0.0418,-0.0077,0.012,0.0277,0.0348,0.0325,0.0332,0.0319,0.0381,0.0371,0.0383,0.0492,0.0492,0.0493,-0.0647,-0.0655,-0.0646,-0.0632,-0.0554,-0.0277,0.0184,0.0519,0.0574,0.0513,0.0423,0.0407,0.0414,0.0387,0.0483,0.0461,0.048,0,0]}],[{"header":{"parameterUnit":"m.s-1","parameterCategory":2,"la1":30.2992,"la2":30.254,"lo1":-89.0895,"lo2":-89.0443,"dy":0.0025,"dx":0.0025,"nx":19,"ny":19,"refTime":"2026-03-10T09:00:00:Z","depth":"2","parameterNumber":2,"parameterNumberName":"U-component_of_CURRENTS"},"data":[0,0,0,-0.1612,-0.1613,-0.1635,-0.1635,-0.1602,-0.1602,0,0,0,0,0,0,0,0,0,0,0,-0.1588,-0.1588,-0.1612,-0.1614,-0.1635,-0.1635,-0.1602,-0.1602,0,0,0,0,0,0,0,0,0,0,0,-0.1588,-0.1588,-0.1588,-0.1614,-0.1635,-0.1635,-0.1602,-0.1597,0,0,0,0,0,0,0,0,0,0,-0.1582,-0.1584,-0.1588,-0.1588,-0.1614,-0.1635,-0.1635,-0.1598,-0.1598,-0.1581,0,-0.1584,0,-0.1606,-0.16,-0.16,0,0,0,-0.1598,-0.1584,-0.1586,-0.1588,-0.1614,-0.1635,-0.1621,-0.1598,-0.1598,-0.1581,-0.1584,-0.1584,-0.1605,-0.16,-0.16,-0.1568,-0.1568,0,0,-0.1596,-0.1595,-0.1586,-0.1586,-0.1619,-0.162,-0.1622,-0.1598,-0.1599,-0.1584,-0.1584,-0.1605,-0.16,-0.1599,-0.1568,-0.1568,0,0,0,-0.1604,-0.1594,-0.1597,-0.1586,-0.1603,-0.1621,-0.1623,-0.16,-0.16,-0.1584,-0.1604,-0.1599,-0.1599,-0.1568,-0.1568,-0.1588,0,0,0,-0.1602,-0.1599,-0.1596,-0.1596,-0.1604,-0.1614,-0.1625,-0.1601,-0.16,-0.1604,-0.1599,-0.1599,-0.1569,-0.1568,-0.1588,-0.1588,0,0,0,-0.1587,-0.1599,-0.1599,-0.1595,-0.1614,-0.1615,-0.1613,-0.1601,-0.1613,-0.16,-0.1599,-0.1569,-0.1568,-0.1588,-0.1587,-0.156,0,0,0,-0.1586,-0.1576,-0.1599,-0.1597,-0.1614,-0.1615,-0.1614,-0.1616,-0.1605,-0.1599,-0.1569,-0.1568,-0.1588,-0.1587,-0.1561,-0.1407,-0.1394,0,0,-0.1568,-0.1574,-0.1572,-0.1594,-0.1594,-0.1611,-0.1613,-0.1603,-0.1593,-0.1569,-0.1569,-0.1588,-0.1587,-0.156,-0.1392,-0.1378,0,0,0,-0.1563,-0.1558,-0.1562,-0.1573,-0.1586,-0.1601,-0.1605,-0.1606,-0.1595,-0.1591,-0.1577,-0.1575,-0.1558,-0.1465,-0.1455,-0.1567,-0.1567,-0.1567,-0.1567,-0.1515,-0.1533,-0.1531,-0.1552,-0.1563,-0.1591,-0.1595,-0.1594,-0.1591,-0.1592,-0.1584,-0.1565,-0.1468,-0.1458,-0.1579,-0.1579,-0.1579,-0.1579,-0.1579,-0.148,-0.1475,-0.1513,-0.1518,-0.1549,-0.1558,-0.1584,-0.1593,-0.1583,-0.1591,-0.1573,-0.1481,-0.1447,-0.1581,-0.158,-0.158,-0.158,-0.158,-0.158,-0.1438,-0.1438,-0.1458,-0.148,-0.1507,-0.1544,-0.1547,-0.1579,-0.1583,-0.158,-0.1451,-0.1449,-0.1568,-0.1565,-0.1565,-0.1565,-0.1564,-0.1564,-0.1564,-0.1381,-0.1403,-0.1404,-0.1439,-0.1453,-0.1483,-0.1526,-0.1516,-0.147,-0.1445,-0.1443,-0.156,-0.156,-0.1566,-0.1563,-0.1563,-0.1563,-0.1563,-0.1563,-0.1303,-0.1329,-0.1324,-0.1335,-0.1364,-0.1318,-0.1405,-0.1324,-0.1322,-0.1257,-0.1353,-0.1359,-0.1329,-0.1335,-0.1334,-0.1271,-0.1271,-0.1271,-0.1271,-0.1243,-0.126,-0.1233,-0.1228,-0.1229,-0.1231,-0.109,-0.1039,-0.1059,-0.1041,-0.1052,-0.1025,-0.1041,-0.0995,-0.1009,-0.1002,-0.0853,-0.0852,-0.0852,-0.1181,-0.1193,-0.1137,-0.1149,-0.1148,-0.1086,-0.0888,-0.0725,-0.0703,-0.084,-0.1028,-0.1234,-0.1222,-0.1236,-0.1189,-0.1203,-0.12,0,0]},{"header":{"parameterUnit":"m.s-1","parameterCategory":2,"la1":30.2992,"la2":30.254,"lo1":-89.0895,"lo2":-89.0443,"dy":0.0025,"dx":0.0025,"nx":19,"ny":19,"refTime":"2026-03-10T09:00:00:Z","depth":"2","parameterNumber":3,"parameterNumberName":"V-component_of_CURRENTS"},"data":[0,0,0,-0.0416,-0.0415,-0.0355,-0.0354,-0.0247,-0.0246,0,0,0,0,0,0,0,0,0,0,0,-0.0434,-0.0434,-0.0416,-0.0415,-0.0355,-0.0354,-0.0247,-0.0246,0,0,0,0,0,0,0,0,0,0,0,-0.0434,-0.0434,-0.0434,-0.0415,-0.0355,-0.0354,-0.0248,-0.0298,0,0,0,0,0,0,0,0,0,0,-0.0359,-0.039,-0.0434,-0.0434,-0.0415,-0.0355,-0.0354,-0.03,-0.0295,-0.027,0,-0.0267,0,-0.026,-0.024,-0.0239,0,0,0,-0.0403,-0.0395,-0.0376,-0.0434,-0.0414,-0.0355,-0.0378,-0.0297,-0.0291,-0.0263,-0.0266,-0.0262,-0.0258,-0.0239,-0.0239,-0.0168,-0.0168,0,0,-0.0406,-0.0423,-0.0381,-0.0372,-0.0406,-0.038,-0.0377,-0.0294,-0.0291,-0.0265,-0.0259,-0.0256,-0.0238,-0.0238,-0.0168,-0.0168,0,0,0,-0.0424,-0.0425,-0.0408,-0.0376,-0.0371,-0.0379,-0.0375,-0.0294,-0.0288,-0.0258,-0.0255,-0.0238,-0.0237,-0.0168,-0.0168,-0.0222,0,0,0,-0.0425,-0.0436,-0.041,-0.0419,-0.0373,-0.0338,-0.0378,-0.0294,-0.0284,-0.0256,-0.0238,-0.0236,-0.0168,-0.0168,-0.0221,-0.0242,0,0,0,-0.0436,-0.0438,-0.0432,-0.042,-0.0399,-0.0339,-0.0327,-0.0292,-0.0283,-0.0239,-0.0235,-0.0168,-0.0168,-0.0219,-0.024,-0.0214,0,0,0,-0.0452,-0.0448,-0.0433,-0.0428,-0.04,-0.0368,-0.0328,-0.0295,-0.0262,-0.0237,-0.0168,-0.0168,-0.0219,-0.0238,-0.0213,-0.0174,-0.0175,0,0,-0.0455,-0.0449,-0.0446,-0.0431,-0.0419,-0.0375,-0.0352,-0.0292,-0.0251,-0.0191,-0.0189,-0.0221,-0.024,-0.0213,-0.0171,-0.0171,0,0,0,-0.0453,-0.0455,-0.0447,-0.0438,-0.0407,-0.0384,-0.0328,-0.0297,-0.0246,-0.0233,-0.0204,-0.0214,-0.0196,-0.017,-0.0171,-0.0168,-0.0168,-0.0168,-0.0168,-0.0483,-0.047,-0.0473,-0.0456,-0.0435,-0.0384,-0.0354,-0.0301,-0.0261,-0.0247,-0.0246,-0.0247,-0.0222,-0.0221,-0.0232,-0.0232,-0.0233,-0.0233,-0.0233,-0.0512,-0.0521,-0.0506,-0.0506,-0.0476,-0.0453,-0.0381,-0.0349,-0.0288,-0.027,-0.0249,-0.0215,-0.0225,-0.0237,-0.0236,-0.0236,-0.0235,-0.0235,-0.0235,-0.0546,-0.0548,-0.0549,-0.0557,-0.0545,-0.05,-0.0468,-0.0411,-0.0336,-0.0322,-0.0249,-0.0247,-0.027,-0.03,-0.03,-0.03,-0.03,-0.03,-0.03,-0.0582,-0.0581,-0.0609,-0.0608,-0.0616,-0.0596,-0.0517,-0.0461,-0.0355,-0.0293,-0.0292,-0.0269,-0.0267,-0.0272,-0.03,-0.03,-0.03,-0.03,-0.03,-0.0619,-0.0625,-0.067,-0.0688,-0.07,-0.069,-0.0598,-0.0448,-0.0366,-0.0299,-0.0256,-0.0257,-0.0225,-0.0224,-0.0226,-0.0241,-0.0241,-0.0241,-0.0241,-0.0651,-0.0655,-0.073,-0.0772,-0.0782,-0.0738,-0.0641,-0.0467,-0.0304,-0.0232,-0.0232,-0.0227,-0.0229,-0.0196,-0.0196,-0.0198,-0.0205,-0.0205,-0.0205,-0.068,-0.0704,-0.0765,-0.081,-0.0828,-0.0781,-0.0688,-0.0472,-0.0247,-0.0206,-0.0257,-0.0232,-0.0225,-0.0228,-0.0177,-0.0177,-0.0179,0,0]}],[{"header":{"parameterUnit":"m.s-1","parameterCategory":2,"la1":30.2992,"la2":30.254,"lo1":-89.0895,"lo2":-89.0443,"dy":0.0025,"dx":0.0025,"nx":19,"ny":19,"refTime":"2026-03-10T09:00:00:Z","depth":"4","parameterNumber":2,"parameterNumberName":"U-component_of_CURRENTS"},"data":[0,0,0,-0.1024,-0.1026,-0.1111,-0.1111,-0.1206,-0.1207,0,0,0,0,0,0,0,0,0,0,0,-0.1008,-0.1009,-0.1024,-0.1026,-0.1111,-0.1111,-0.1206,-0.1207,0,0,0,0,0,0,0,0,0,0,0,-0.1008,-0.1009,-0.101,-0.1026,-0.1111,-0.1111,-0.1206,-0.1148,0,0,0,0,0,0,0,0,0,0,-0.1068,-0.1052,-0.1009,-0.101,-0.1026,-0.111,-0.1111,-0.1145,-0.1151,-0.1161,0,-0.1181,0,-0.1186,-0.1212,-0.1213,0,0,0,-0.1036,-0.1047,-0.1066,-0.101,-0.1027,-0.111,-0.1075,-0.1149,-0.1156,-0.1169,-0.1182,-0.1185,-0.1187,-0.1213,-0.1213,-0.128,-0.128,0,0,-0.1031,-0.1027,-0.1061,-0.107,-0.1058,-0.1072,-0.1078,-0.1153,-0.1166,-0.1182,-0.1188,-0.1189,-0.1213,-0.1214,-0.128,-0.128,0,0,0,-0.1011,-0.1024,-0.1041,-0.1066,-0.1077,-0.1075,-0.1081,-0.1163,-0.1169,-0.1189,-0.119,-0.1214,-0.1215,-0.1279,-0.128,-0.1297,0,0,0,-0.1009,-0.1011,-0.1039,-0.1038,-0.1076,-0.1122,-0.1089,-0.1164,-0.1172,-0.119,-0.1214,-0.1215,-0.1279,-0.128,-0.1296,-0.1288,0,0,0,-0.1003,-0.101,-0.1022,-0.1038,-0.1068,-0.1121,-0.1132,-0.1166,-0.1172,-0.1213,-0.1216,-0.1279,-0.128,-0.1296,-0.1287,-0.1249,0,0,0,-0.0993,-0.1022,-0.1022,-0.1063,-0.1067,-0.1126,-0.1131,-0.1192,-0.1232,-0.1214,-0.1279,-0.128,-0.1295,-0.1286,-0.1249,-0.1078,0,0,0,-0.1021,-0.1026,-0.105,-0.1051,-0.1099,-0.1115,-0.1169,-0.1225,-0.1234,-0.1255,-0.1257,-0.1297,-0.1287,-0.1249,-0.1102,0,0,0,0,-0.1053,-0.1063,-0.1084,-0.1111,-0.1151,-0.1179,-0.1226,-0.124,-0.1278,-0.1256,-0.1299,-0.1292,-0.1268,-0.1169,-0.1282,-0.1281,-0.1281,-0.1281,-0.1281,-0.106,-0.1081,-0.1116,-0.1145,-0.1184,-0.1232,-0.1257,-0.1278,-0.13,-0.1315,-0.1309,-0.1295,-0.1194,-0.1321,-0.1321,-0.1321,-0.1321,-0.1321,-0.1321,-0.1071,-0.1078,-0.1118,-0.1158,-0.1195,-0.1241,-0.1281,-0.13,-0.1305,-0.1326,-0.1302,-0.1199,-0.1323,-0.1323,-0.1322,-0.1322,-0.1322,-0.1322,-0.1322,-0.1043,-0.1048,-0.1088,-0.1137,-0.1187,-0.1241,-0.124,-0.129,-0.1303,-0.1298,-0.1164,-0.1287,-0.1279,-0.1283,-0.1283,-0.1283,-0.1283,-0.1283,-0.1282,-0.0988,-0.1026,-0.1048,-0.1111,-0.1137,-0.1175,-0.1222,-0.1202,-0.1233,-0.1146,-0.1293,-0.1281,-0.1282,-0.1276,-0.128,-0.128,-0.128,-0.1281,-0.1281,-0.0929,-0.0958,-0.0974,-0.1,-0.1042,-0.105,-0.1125,-0.105,-0.1006,-0.0944,-0.1049,-0.1061,-0.1025,-0.1032,-0.1016,-0.0942,-0.094,-0.0938,0,-0.0876,-0.0896,-0.089,-0.089,-0.0879,-0.0954,-0.0849,-0.0848,-0.0864,-0.0838,-0.1009,-0.113,-0.1137,-0.1103,-0.1105,-0.1088,0,0,0,-0.0828,-0.0833,-0.0793,-0.0806,-0.0786,-0.076,-0.0809,-0.0751,-0.0888,-0.0782,-0.0881,-0.0896,-0.113,-0.1271,-0.1245,-0.1246,-0.1234,0,0]},{"header":{"parameterUnit":"m.s-1","parameterCategory":2,"la1":30.2992,"la2":30.254,"lo1":-89.0895,"lo2":-89.0443,"dy":0.0025,"dx":0.0025,"nx":19,"ny":19,"refTime":"2026-03-10T09:00:00:Z","depth":"4","parameterNumber":3,"parameterNumberName":"V-component_of_CURRENTS"},"data":[0,0,0,-0.0348,-0.0347,-0.0321,-0.032,-0.0237,-0.0236,0,0,0,0,0,0,0,0,0,0,0,-0.0355,-0.0355,-0.0348,-0.0347,-0.0321,-0.032,-0.0237,-0.0236,0,0,0,0,0,0,0,0,0,0,0,-0.0355,-0.0355,-0.0355,-0.0347,-0.0321,-0.032,-0.0237,-0.0267,0,0,0,0,0,0,0,0,0,0,-0.0298,-0.0323,-0.0355,-0.0355,-0.0347,-0.0321,-0.032,-0.0269,-0.0265,-0.0238,0,-0.0241,0,-0.0241,-0.023,-0.023,0,0,0,-0.0337,-0.0326,-0.0314,-0.0355,-0.0347,-0.0321,-0.033,-0.0267,-0.0263,-0.0233,-0.024,-0.0238,-0.0239,-0.023,-0.0229,-0.0167,-0.0167,0,0,-0.0338,-0.0351,-0.0318,-0.0312,-0.0348,-0.0331,-0.0329,-0.0265,-0.0265,-0.024,-0.0236,-0.0238,-0.0229,-0.0229,-0.0167,-0.0167,0,0,0,-0.035,-0.0352,-0.0343,-0.0315,-0.0316,-0.033,-0.0328,-0.0268,-0.0264,-0.0235,-0.0237,-0.0229,-0.0228,-0.0167,-0.0167,-0.0214,0,0,0,-0.035,-0.0359,-0.0343,-0.035,-0.0318,-0.0301,-0.0333,-0.0269,-0.0262,-0.0237,-0.0229,-0.0227,-0.0167,-0.0167,-0.0213,-0.0235,0,0,0,-0.0355,-0.036,-0.0358,-0.0351,-0.0344,-0.0302,-0.0294,-0.0267,-0.0263,-0.023,-0.0227,-0.0167,-0.0167,-0.0212,-0.0233,-0.0231,0,0,0,-0.0365,-0.0364,-0.0359,-0.0358,-0.0345,-0.0323,-0.0295,-0.0274,-0.0249,-0.0228,-0.0167,-0.0167,-0.0211,-0.0232,-0.023,-0.0223,0,0,0,-0.0366,-0.0365,-0.0363,-0.0358,-0.035,-0.0325,-0.0311,-0.0269,-0.0236,-0.0183,-0.0181,-0.0213,-0.0233,-0.0231,-0.0216,0,0,0,0,-0.0365,-0.0367,-0.0362,-0.0361,-0.0341,-0.0332,-0.0293,-0.0272,-0.0234,-0.0223,-0.0198,-0.0208,-0.0206,-0.0198,-0.0166,-0.0167,-0.0167,-0.0167,-0.0167,-0.0383,-0.0376,-0.038,-0.0371,-0.0359,-0.0331,-0.0315,-0.0277,-0.0242,-0.0235,-0.0236,-0.0251,-0.0244,-0.022,-0.0221,-0.0221,-0.0221,-0.0221,-0.0221,-0.04,-0.0406,-0.0403,-0.0407,-0.0395,-0.0383,-0.0337,-0.0316,-0.028,-0.0257,-0.0252,-0.0234,-0.0225,-0.0225,-0.0224,-0.0224,-0.0223,-0.0223,-0.0223,-0.0418,-0.0421,-0.043,-0.0446,-0.0451,-0.0427,-0.0417,-0.0377,-0.0325,-0.0322,-0.029,-0.0273,-0.0281,-0.0315,-0.0315,-0.0315,-0.0315,-0.0315,-0.0315,-0.0436,-0.0442,-0.0474,-0.0487,-0.0506,-0.0506,-0.0467,-0.0436,-0.0382,-0.0337,-0.0332,-0.0282,-0.0279,-0.0285,-0.0316,-0.0316,-0.0316,-0.0316,-0.0316,-0.0452,-0.0467,-0.0513,-0.0542,-0.0578,-0.0567,-0.0534,-0.0451,-0.0418,-0.0372,-0.0333,-0.0332,-0.031,-0.0306,-0.0312,-0.0352,-0.0352,-0.0352,0,-0.047,-0.0477,-0.0557,-0.0609,-0.063,-0.0605,-0.0546,-0.0495,-0.0418,-0.0413,-0.0429,-0.039,-0.0387,-0.0366,-0.0363,-0.0373,0,0,0,-0.0488,-0.0514,-0.0576,-0.0633,-0.0659,-0.0577,-0.0528,-0.0495,-0.0426,-0.0381,-0.0353,-0.0353,-0.0358,-0.0321,-0.0283,-0.028,-0.0287,0,0]}]]